[[{"header":{"parameterUnit":"m.s-1","parameterCategory":1,"la1":30.2991,"la2":30.254,"lo1":-89.0895,"lo2":-89.0444,"dy":0.0017,"dx":0.0017,"nx":28,"ny":28,"refTime":"2024-04-07T03:00:00:Z","depth":0,"parameterNumber":2,"parameterNumberName":"U-component_of_WINDS"},"data":[0,0,0,0,0,0,0,0,0,0,0,0,0,0,0,0,0,0,0,0,0,0,0,0,0,0,0,0,0,0,0,0,0,0,0,0,0,0,0,0,0,0,0,0,0,0,0,0,0,0,0,0,0,0,0,0,0,0,-5.7922,-5.7923,0,-5.7979,-5.7979,-5.798,-5.7949,-5.7948,-5.7946,-5.7945,-5.8001,-5.8004,-5.8007,0,0,0,0,0,0,0,0,0,0,0,0,0,-5.7786,-5.7789,-5.7922,-5.7923,-5.7923,-5.7979,-5.7979,-5.798,-5.795,-5.7948,-5.7946,-5.7944,-5.8,-5.8004,-5.8007,0,0,0,0,0,0,0,0,0,0,0,0,0,-5.7844,-5.779,-5.7922,-5.7915,-5.7915,-5.7978,-5.7979,-5.798,-5.795,-5.7948,-5.7946,-5.7943,-5.7999,-5.8003,-5.8008,-5.8081,0,0,-5.8021,-5.8023,0,0,0,0,0,0,0,0,-5.7841,-5.7849,-5.7915,-5.7915,-5.7916,-5.7955,-5.7952,-5.8014,-5.7951,-5.7937,-5.7945,-5.7942,-5.7987,-5.7993,-5.8008,-5.8083,-5.8086,-5.8021,-5.8024,-5.8026,-5.8027,0,0,0,0,0,0,0,-5.7837,-5.7847,-5.7944,-5.7916,-5.7916,-5.7909,-5.7914,-5.7964,-5.7974,-5.7938,-5.7936,-5.7943,-5.7987,-5.8004,-5.8009,-5.8086,-5.8021,-5.8025,-5.8028,-5.803,-5.8224,-5.8227,0,0,0,0,0,0,-5.7834,-5.7844,-5.7942,-5.7946,-5.7872,-5.7913,-5.7919,-5.7944,-5.7974,-5.7976,-5.7945,-5.7941,-5.7998,-5.8004,-5.8011,-5.8097,-5.8026,-5.803,-5.8033,-5.8222,-5.8225,-5.8228,0,0,0,0,0,0,-5.7831,-5.7843,-5.794,-5.7894,-5.7906,-5.7918,-5.7946,-5.7947,-5.7964,-5.7979,-5.798,-5.796,-5.7996,-5.8005,-5.8064,-5.8099,-5.8032,-5.8036,-5.8219,-5.8223,-5.8226,-5.8271,0,0,0,0,0,0,-5.7827,-5.7842,-5.787,-5.7895,-5.7909,-5.7992,-5.7948,-5.7949,-5.7971,-5.7967,-5.7994,-5.7996,-5.7995,-5.8057,-5.8068,-5.8104,-5.8039,-5.8216,-5.8221,-5.8225,-5.8266,-5.8276,-5.8284,0,0,0,0,0,-5.7822,-5.788,-5.7871,-5.7883,-5.7944,-5.7994,-5.8002,-5.8,-5.7975,-5.8002,-5.8013,-5.7995,-5.8094,-5.8064,-5.8075,-5.8113,-5.8213,-5.8219,-5.8225,-5.8262,-5.8274,-5.8284,0,0,0,0,0,0,-5.7857,-5.7883,-5.7874,-5.7941,-5.7966,-5.7989,-5.8023,-5.8012,-5.8044,-5.8039,-5.8035,-5.8041,-5.8102,-5.8114,-5.8079,-5.8185,-5.815,-5.8158,-5.8174,-5.8186,-5.8194,-5.8188,-5.8043,0,0,0,0,0,-5.7873,-5.7912,-5.7932,-5.799,-5.8003,-5.8011,-5.8033,-5.803,-5.8055,-5.8065,-5.8079,-5.8104,-5.814,-5.8164,-5.8199,-5.827,-5.8274,-5.8302,-5.831,-5.8318,-5.8324,-5.8361,-5.8373,-5.8246,-5.8246,-5.8246,0,0,-5.7904,-5.7924,-5.7948,-5.7997,-5.8016,-5.8055,-5.802,-5.8064,-5.8093,-5.8071,-5.8127,-5.8139,-5.8166,-5.8231,-5.826,-5.8243,-5.8361,-5.8325,-5.8331,-5.8333,-5.8368,-5.838,-5.8391,-5.825,-5.825,-5.8249,0,0,-5.7982,-5.8002,-5.8051,-5.8071,-5.8101,-5.8107,-5.8119,-5.8144,-5.8151,-5.8208,-5.8193,-5.8228,-5.8292,-5.8311,-5.833,-5.8419,-5.8403,-5.8431,-5.8475,-5.8512,-5.8522,-5.853,-5.856,-5.8571,-5.8437,-5.8438,-5.8438,0,-5.8018,-5.8078,-5.8078,-5.8123,-5.8145,-5.8129,-5.8179,-5.8198,-5.8237,-5.8252,-5.8233,-5.8313,-5.833,-5.8399,-5.8421,-5.8437,-5.845,-5.8425,-5.852,-5.8529,-5.8537,-5.8566,-5.8577,-5.844,-5.844,-5.844,-5.844,0,-5.8119,-5.8161,-5.8198,-5.8236,-5.8263,-5.831,-5.8317,-5.8344,-5.834,-5.8348,-5.8406,-5.8427,-5.8465,-5.8483,-5.8478,-5.8551,-5.8539,-5.8521,-5.8484,-5.8552,-5.8579,-5.859,-5.8445,-5.8443,-5.8443,-5.8442,0,0,-5.8216,-5.8257,-5.827,-5.8287,-5.832,-5.8352,-5.84,-5.8438,-5.846,-5.8489,-5.8527,-5.8583,-5.8566,-5.8587,-5.8586,-5.8619,-5.8686,-5.8596,-5.8597,-5.861,-5.8766,-5.8777,-5.879,-5.8678,-5.868,-5.8682,-5.8763,0,-5.8294,-5.8376,-5.8379,-5.8454,-5.8492,-5.848,-5.8521,-5.8546,-5.8555,-5.8589,-5.86,-5.8639,-5.8615,-5.8627,-5.866,-5.8671,-5.8717,-5.8666,-5.8712,-5.8714,-5.8702,-5.8804,-5.8816,-5.889,-5.8773,-5.8775,-5.8776,0,-5.8395,-5.8427,-5.8506,-5.8534,-5.855,-5.8587,-5.8623,-5.8656,-5.8684,-5.8689,-5.8714,-5.8709,-5.8757,-5.8723,-5.8788,-5.8753,-5.8773,-5.8782,-5.8785,-5.8786,-5.8746,-5.8805,-5.8914,-5.8924,-5.8793,-5.8792,-5.879,0,-5.8454,-5.8518,-5.8574,-5.859,-5.8624,-5.865,-5.8666,-5.8692,-5.8715,-5.8747,-5.8762,-5.88,-5.8819,-5.8848,-5.8853,-5.8828,-5.8919,-5.8885,-5.8922,-5.8922,-5.8938,-5.8937,-5.9049,-5.8957,-5.8957,-5.8957,-5.8957,0,-5.8539,-5.8587,-5.8601,-5.8634,-5.8688,-5.8692,-5.8745,-5.8759,-5.8783,-5.8818,-5.8812,-5.8845,-5.8851,-5.8887,-5.8891,-5.8944,-5.8954,-5.8958,-5.8958,-5.8957,-5.8956,-5.8967,-5.896,-5.896,-5.8959,-5.8959,-5.8958,0,-5.8612,-5.8624,-5.8683,-5.8712,-5.8721,-5.8759,-5.8783,-5.8815,-5.8826,-5.8872,-5.8883,-5.8899,-5.894,-5.8949,-5.8998,-5.9001,-5.9063,-5.906,-5.9053,-5.9052,-5.9088,-5.9084,-5.9209,-5.9225,-5.9126,-5.9127,-5.9127,0,-5.8663,-5.87,-5.8734,-5.8758,-5.8775,-5.8814,-5.8838,-5.8845,-5.887,-5.8906,-5.8934,-5.8975,-5.9007,-5.9074,-5.909,-5.9127,-5.9123,-5.9165,-5.9128,-5.9126,-5.912,-5.9116,-5.9119,-5.917,-5.9171,-5.9172,-5.9173,0,-5.8752,-5.8757,-5.8792,-5.8831,-5.886,-5.889,-5.8919,-5.8939,-5.8949,-5.8979,-5.9021,-5.9047,-5.9098,-5.9138,-5.9176,-5.9192,-5.9184,-5.9185,-5.9195,-5.9192,-5.9186,-5.9187,-5.9069,-5.9181,-5.918,-5.9179,-5.9179,-5.9179,-5.8814,-5.8846,-5.8875,-5.8915,-5.8938,-5.8966,-5.8997,-5.9013,-5.9048,-5.909,-5.9093,-5.9139,-5.9168,-5.9218,-5.9237,-5.9273,-5.926,-5.9275,-5.9279,-5.9281,-5.9283,-5.9184,-5.9281,-5.928,-5.928,-5.928,-5.928,0,-5.89,-5.8919,-5.8956,-5.8997,-5.9029,-5.9021,-5.9053,-5.908,-5.912,-5.9148,-5.9181,-5.9231,-5.927,-5.9291,-5.933,-5.9355,-5.9352,-5.9365,-5.9361,-5.9365,-5.9294,-5.928,-5.9367,-5.9367,-5.9367,-5.9367,-5.9366,-5.9366,-5.8948,-5.9002,-5.901,-5.9075,-5.9094,-5.9139,-5.9158,-5.9184,-5.9206,-5.9261,-5.9295,-5.9308,-5.9333,-5.9375,-5.9411,-5.9416,-5.9429,-5.9443,-5.9446,-5.9379,-5.937,-5.9361,-5.9348,-5.9447,-5.9447,-5.9514,-5.9514,-5.9515]},{"header":{"parameterUnit":"m.s-1","parameterCategory":1,"la1":30.2991,"la2":30.254,"lo1":-89.0895,"lo2":-89.0444,"dy":0.0017,"dx":0.0017,"nx":28,"ny":28,"refTime":"2024-04-07T03:00:00:Z","depth":0,"parameterNumber":3,"parameterNumberName":"V-component_of_WINDS"},"data":[0,0,0,0,0,0,0,0,0,0,0,0,0,0,0,0,0,0,0,0,0,0,0,0,0,0,0,0,0,0,0,0,0,0,0,0,0,0,0,0,0,0,0,0,0,0,0,0,0,0,0,0,0,0,0,0,0,0,3.0979,3.0979,0,3.1031,3.1032,3.1032,3.111,3.1111,3.1113,3.1114,3.1164,3.1164,3.1164,0,0,0,0,0,0,0,0,0,0,0,0,0,3.0946,3.0946,3.0979,3.098,3.098,3.1031,3.1032,3.1032,3.111,3.1111,3.1113,3.1115,3.1164,3.1164,3.1164,0,0,0,0,0,0,0,0,0,0,0,0,0,3.0975,3.0947,3.0979,3.1025,3.103,3.1031,3.1032,3.1033,3.1109,3.1111,3.1114,3.1115,3.1164,3.1164,3.1164,3.1124,0,0,3.1165,3.1165,0,0,0,0,0,0,0,0,3.0974,3.0977,3.1018,3.1022,3.1027,3.1066,3.1039,3.1063,3.1109,3.1079,3.1114,3.1116,3.113,3.1133,3.1138,3.1126,3.1128,3.1165,3.1165,3.1165,3.1165,0,0,0,0,0,0,0,3.0972,3.0975,3.0999,3.1018,3.1024,3.1043,3.105,3.1044,3.1092,3.1082,3.1088,3.1093,3.1133,3.1138,3.114,3.1129,3.1165,3.1165,3.1165,3.1165,3.109,3.1088,0,0,0,0,0,0,3.0963,3.0973,3.0998,3.1001,3.1005,3.1042,3.1049,3.1051,3.1092,3.1101,3.1091,3.1096,3.1137,3.114,3.1142,3.1099,3.1165,3.1165,3.1165,3.1092,3.1089,3.1087,0,0,0,0,0,0,3.0962,3.0964,3.0996,3.0988,3.0994,3.104,3.1042,3.1051,3.1057,3.1099,3.1108,3.1087,3.1138,3.1142,3.1129,3.1102,3.1165,3.1165,3.1094,3.1091,3.1088,3.1012,0,0,0,0,0,0,3.0961,3.0964,3.0948,3.0988,3.0994,3.0981,3.1041,3.1051,3.1057,3.1064,3.1098,3.1106,3.114,3.1128,3.1129,3.1103,3.1165,3.1097,3.1093,3.1089,3.1017,3.1007,3.0998,0,0,0,0,0,3.0959,3.0923,3.0947,3.095,3.0976,3.098,3.0983,3.1025,3.1054,3.104,3.1068,3.1105,3.1105,3.1126,3.1127,3.1102,3.1099,3.1094,3.1089,3.1021,3.1009,3.0998,0,0,0,0,0,0,3.0878,3.0929,3.0956,3.0932,3.0951,3.0993,3.0976,3.1009,3.102,3.1026,3.1076,3.1083,3.1064,3.1081,3.1104,3.1066,3.1108,3.1103,3.1055,3.1044,3.1034,3.1031,3.1165,0,0,0,0,0,3.0858,3.0857,3.0901,3.0876,3.0884,3.0928,3.0931,3.0962,3.0983,3.0991,3.1018,3.1037,3.1042,3.1043,3.105,3.102,3.103,3.1003,3.0993,3.0985,3.0981,3.0969,3.0958,3.1072,3.1072,3.1072,0,0,3.0815,3.0843,3.0839,3.086,3.0879,3.0877,3.0934,3.0929,3.0929,3.099,3.0981,3.1001,3.1025,3.1005,3.0997,3.1018,3.0952,3.0979,3.0973,3.0973,3.0963,3.0952,3.0943,3.1069,3.1069,3.107,0,0,3.0737,3.0757,3.074,3.0758,3.0786,3.0816,3.0811,3.0849,3.0865,3.0857,3.0904,3.0903,3.0909,3.0926,3.0935,3.0867,3.0901,3.0867,3.0817,3.0804,3.0796,3.0788,3.0765,3.0756,3.0862,3.0862,3.0862,0,3.068,3.068,3.0726,3.0719,3.0728,3.0786,3.0769,3.0784,3.0812,3.0817,3.0841,3.0852,3.0872,3.0858,3.0841,3.0846,3.0844,3.0863,3.0793,3.0786,3.078,3.0759,3.075,3.0858,3.0858,3.0859,3.0859,0,3.061,3.0609,3.0592,3.062,3.0626,3.0614,3.0659,3.0661,3.0691,3.0718,3.071,3.0737,3.0751,3.075,3.0778,3.074,3.0753,3.0784,3.0827,3.0764,3.0745,3.0737,3.0852,3.0853,3.0855,3.0856,0,0,3.0481,3.0537,3.0529,3.0544,3.058,3.0581,3.0572,3.0588,3.0589,3.0607,3.0602,3.0607,3.0638,3.0648,3.0679,3.0668,3.0615,3.0702,3.0704,3.0686,3.0577,3.0554,3.0543,3.0639,3.0637,3.0636,3.0575,0,3.0411,3.04,3.0443,3.0421,3.0423,3.0478,3.0471,3.0493,3.0519,3.0524,3.0552,3.0556,3.0595,3.0602,3.0594,3.0623,3.0594,3.0628,3.0635,3.0635,3.0628,3.0533,3.0508,3.0449,3.0568,3.0567,3.0566,0,3.0328,3.0344,3.0322,3.0363,3.0365,3.0358,3.0377,3.0381,3.0407,3.0427,3.044,3.0477,3.0472,3.0513,3.0508,3.053,3.0536,3.0551,3.055,3.0552,3.0597,3.0535,3.0431,3.0423,3.0554,3.0555,3.0556,0,3.0238,3.0254,3.0245,3.0255,3.0301,3.0295,3.0314,3.0343,3.035,3.0367,3.0373,3.0387,3.0396,3.0407,3.0447,3.0473,3.0438,3.0481,3.0455,3.0454,3.0445,3.0445,3.0342,3.0446,3.0447,3.0447,3.0447,0,3.0156,3.0142,3.0205,3.0199,3.0185,3.0235,3.0219,3.0244,3.0269,3.0269,3.0318,3.0317,3.037,3.0375,3.0407,3.0399,3.0401,3.0418,3.0427,3.0414,3.0412,3.0419,3.0424,3.0444,3.0445,3.0445,3.0446,0,3.0054,3.0096,3.0089,3.0135,3.0146,3.0134,3.0173,3.0169,3.0199,3.0199,3.0202,3.0248,3.0257,3.0299,3.0317,3.0338,3.032,3.0336,3.0311,3.0317,3.0289,3.0292,3.0188,3.0177,3.0286,3.0285,3.0284,0,3.0,2.999,3.0035,3.004,3.0057,3.0063,3.0072,3.012,3.0128,3.0159,3.0152,3.0165,3.0178,3.019,3.0225,3.024,3.0258,3.022,3.026,3.0249,3.0259,3.026,3.026,3.0212,3.021,3.0209,3.0208,0,2.9899,2.9921,2.9933,2.9952,2.9961,2.9978,2.9998,2.9999,3.0053,3.0059,3.0069,3.008,3.01,3.0113,3.0134,3.0153,3.019,3.0196,3.0191,3.0178,3.0165,3.0174,3.029,3.0198,3.0199,3.02,3.02,3.0201,2.9821,2.9816,2.9848,2.986,2.988,2.9898,2.9899,2.993,2.994,2.9961,2.9989,2.9996,3.0025,3.0058,3.0075,3.0081,3.0102,3.0094,3.0092,3.009,3.0084,3.0163,3.0085,3.0085,3.0086,3.0086,3.0086,0,2.9725,2.9749,2.9759,2.9787,2.9796,2.9831,2.9856,2.9861,2.9868,2.9892,2.9905,2.9918,2.9932,2.9969,2.9986,2.9985,3.0002,2.9988,2.9989,2.9993,3.0064,3.0068,2.9973,2.9973,2.9974,2.9974,2.9974,2.9974,2.9676,2.9671,2.9697,2.9703,2.9727,2.9736,2.9747,2.9765,2.9785,2.9798,2.981,2.9835,2.9865,2.9885,2.99,2.991,2.9915,2.9895,2.9911,2.9977,2.9988,2.9998,3.0002,2.9895,2.9895,2.984,2.984,2.9839]}]]